Tracking 18795 objects as of 22-August-2017
HD Live streaming from Space Station
objects crossing your sky now

IRIDIUM 18

Track IRIDIUM 18 now!
10-day predictions
IRIDIUM 18 is classified as:


NORAD ID: 24872
Int'l Code: 1997-034D
Perigee: 768.3 km
Apogee: 772.2 km
Inclination: 86.4 °
Period: 100.1 minutes
Semi major axis: 7141 km
RCS: 3.8649 m2 (large)
Launch date: July 9, 1997
Source: United States (US)
Launch site: AIR FORCE WESTERN TEST RANGE (AFWTR)
Your satellite tracking list
Your tracking list is empty





NASA's NSSDC Master Catalog

Two Line Element Set (TLE):
1 24872U 97034D   17234.24019553 +.00000135 +00000-0 +37468-4 0  9993
2 24872 086.4248 354.4537 0002741 103.7998 256.3505 14.38610759053388
Source of the keplerian elements: AFSPC